User: anonymous   Login
Location: Belfast
(54.5830°N, 5.9330°W)
Time: 13:20:04
(UTC+00:00)
Language:

Coronas F rocket - Orbit

View from above orbital plane
View from above orbital plane
View from above satellite
View from above satellite

Ground track
Ground track

The orbit data is extracted from the following two-line orbital elements,

1 26874U 01032B   17023.84992674  .00056128  32946-7  12573-3 0  9999
2 26874  82.4522  37.5874 0006478  86.0061 274.1956 15.97575467870669
Epoch (UTC): 23 January 2017 20:23:53
Eccentricity: 0.0006478
inclination: 82.4522°
perigee height: 277 km
apogee height: 285 km
right ascension of ascending node: 37.5874°
argument of perigee: 86.0061°
revolutions per day: 15.97575467
mean anomaly at epoch: 274.1956°
orbit number at epoch: 87066

The dashed part of the orbit path shows where the satellite is in the earth's shadow,  

DLR